Time,TemperatureF,DewpointF,PressureIn,WindDirection,WindDirectionDegrees,WindSpeedMPH,WindSpeedGustMPH,Humidity,HourlyPrecipIn,Conditions,Clouds,dailyrainin,SoftwareType,DateUTC
2013-02-09 00:00:00,25.3,22.6,28.85,SSE,158,12.3,15.2,89,0.00,,,0.00,VWS V14.01,2013-02-09 06:00:00,
2013-02-09 00:05:00,25.3,22.3,28.85,SSE,158,16.3,19.7,88,0.00,,,0.00,VWS V14.01,2013-02-09 06:05:00,
2013-02-09 00:10:00,25.0,21.9,28.85,SE,135,17.5,21.0,88,0.00,,,0.00,VWS V14.01,2013-02-09 06:10:00,
2013-02-09 00:15:00,25.2,22.1,28.85,SE,135,11.0,17.7,88,0.00,,,0.00,VWS V14.01,2013-02-09 06:15:00,
2013-02-09 00:20:00,25.2,21.8,28.85,SSE,158,10.3,14.5,87,0.00,,,0.00,VWS V14.01,2013-02-09 06:20:00,
2013-02-09 00:25:00,25.2,22.1,28.85,SE,135,12.5,17.5,88,0.00,,,0.00,VWS V14.01,2013-02-09 06:25:00,
2013-02-09 00:30:00,25.2,22.1,28.85,SSE,158,12.8,17.0,88,0.00,,,0.00,VWS V14.01,2013-02-09 06:30:00,
2013-02-09 00:35:00,25.0,21.9,28.85,SSE,158,10.7,17.2,88,0.00,,,0.00,VWS V14.01,2013-02-09 06:35:00,
2013-02-09 00:40:00,25.3,22.3,28.85,SSE,158,7.4,15.4,88,0.00,,,0.00,VWS V14.01,2013-02-09 06:40:00,
2013-02-09 00:45:00,25.0,21.9,28.85,SSE,158,14.8,19.2,88,0.00,,,0.00,VWS V14.01,2013-02-09 06:45:00,
2013-02-09 00:50:00,25.3,22.3,28.85,SE,135,15.4,15.4,88,0.00,,,0.00,VWS V14.01,2013-02-09 06:50:00,
2013-02-09 00:55:00,25.2,22.1,28.85,SSE,158,19.5,22.2,88,0.00,,,0.00,VWS V14.01,2013-02-09 06:55:00,
2013-02-09 01:00:00,25.3,22.3,28.85,SSE,158,17.5,21.3,88,0.00,,,0.00,VWS V14.01,2013-02-09 07:00:00,
2013-02-09 01:05:00,25.3,22.3,28.85,SSE,158,16.3,19.7,88,0.00,,,0.00,VWS V14.01,2013-02-09 07:05:00,
2013-02-09 01:10:00,25.2,21.8,28.85,SSE,158,14.8,19.0,87,0.00,,,0.00,VWS V14.01,2013-02-09 07:10:00,
2013-02-09 01:15:00,25.2,21.8,28.85,SSE,158,8.5,15.4,87,0.00,,,0.00,VWS V14.01,2013-02-09 07:15:00,
2013-02-09 01:20:00,25.2,21.8,28.85,SSE,158,10.3,14.5,87,0.00,,,0.00,VWS V14.01,2013-02-09 07:20:00,
2013-02-09 01:25:00,25.0,21.7,28.85,SSE,158,19.5,19.5,87,0.00,,,0.00,VWS V14.01,2013-02-09 07:25:00,
2013-02-09 01:30:00,25.2,22.6,28.82,SSE,158,12.5,16.1,90,0.00,,,0.00,VWS V14.01,2013-02-09 07:30:00,
2013-02-09 01:35:00,25.0,21.9,28.85,SSE,158,10.7,17.2,88,0.00,,,0.00,VWS V14.01,2013-02-09 07:35:00,
2013-02-09 01:40:00,25.0,21.9,28.85,SSE,158,19.2,19.2,88,0.00,,,0.00,VWS V14.01,2013-02-09 07:40:00,
2013-02-09 01:45:00,25.0,21.9,28.85,SSE,158,14.8,19.2,88,0.00,,,0.00,VWS V14.01,2013-02-09 07:45:00,
2013-02-09 01:50:00,25.0,21.9,28.85,SSE,158,17.7,18.1,88,0.00,,,0.00,VWS V14.01,2013-02-09 07:50:00,
2013-02-09 01:55:00,25.3,22.6,28.82,SE,135,10.3,13.2,89,0.00,,,0.00,VWS V14.01,2013-02-09 07:55:00,
2013-02-09 02:00:00,25.2,22.1,28.85,SSE,158,15.4,17.2,88,0.00,,,0.00,VWS V14.01,2013-02-09 08:00:00,
2013-02-09 02:05:00,25.3,22.0,28.82,SSE,158,12.3,18.6,87,0.00,,,0.00,VWS V14.01,2013-02-09 08:05:00,
2013-02-09 02:10:00,25.2,22.4,28.85,SSE,158,21.9,21.9,89,0.00,,,0.00,VWS V14.01,2013-02-09 08:10:00,
2013-02-09 02:15:00,25.2,22.4,28.85,SE,135,10.3,21.9,89,0.00,,,0.00,VWS V14.01,2013-02-09 08:15:00,
2013-02-09 02:20:00,25.2,22.4,28.85,SE,135,13.9,16.3,89,0.00,,,0.00,VWS V14.01,2013-02-09 08:20:00,
2013-02-09 02:25:00,25.2,22.4,28.85,SSE,158,12.3,18.6,89,0.00,,,0.00,VWS V14.01,2013-02-09 08:25:00,
2013-02-09 02:30:00,25.3,21.5,28.79,SSE,158,23.9,26.0,85,0.00,,,0.00,VWS V14.01,2013-02-09 08:30:00,
2013-02-09 02:35:00,25.3,22.8,28.82,SSE,158,8.1,13.4,90,0.00,,,0.00,VWS V14.01,2013-02-09 08:35:00,
2013-02-09 02:40:00,25.3,22.8,28.82,SE,135,16.6,16.6,90,0.00,,,0.00,VWS V14.01,2013-02-09 08:40:00,
2013-02-09 02:45:00,25.3,21.8,28.79,SSE,158,13.9,23.7,86,0.00,,,0.00,VWS V14.01,2013-02-09 08:45:00,
2013-02-09 02:50:00,25.3,21.5,28.79,SSE,158,19.9,25.5,85,0.00,,,0.00,VWS V14.01,2013-02-09 08:50:00,
2013-02-09 02:55:00,25.3,21.5,28.79,SSE,158,14.8,23.7,85,0.00,,,0.00,VWS V14.01,2013-02-09 08:55:00,
2013-02-09 03:00:00,25.3,21.5,28.79,SSE,158,13.0,20.8,85,0.00,,,0.00,VWS V14.01,2013-02-09 09:00:00,
2013-02-09 03:05:00,25.3,21.5,28.79,SSE,158,19.5,21.5,85,0.00,,,0.00,VWS V14.01,2013-02-09 09:05:00,
2013-02-09 03:10:00,25.3,21.2,28.79,SSE,158,12.5,19.9,84,0.00,,,0.00,VWS V14.01,2013-02-09 09:10:00,
2013-02-09 03:15:00,25.3,21.5,28.79,SSE,158,12.8,17.2,85,0.00,,,0.00,VWS V14.01,2013-02-09 09:15:00,
2013-02-09 03:20:00,25.3,21.5,28.79,SSE,158,15.4,18.6,85,0.00,,,0.00,VWS V14.01,2013-02-09 09:20:00,
2013-02-09 03:25:00,25.3,21.8,28.79,South,180,12.8,17.2,86,0.00,,,0.00,VWS V14.01,2013-02-09 09:25:00,
2013-02-09 03:30:00,25.3,21.5,28.79,SSE,158,20.6,21.9,85,0.00,,,0.00,VWS V14.01,2013-02-09 09:30:00,
2013-02-09 03:35:00,25.3,21.5,28.79,SSE,158,19.7,20.6,85,0.00,,,0.00,VWS V14.01,2013-02-09 09:35:00,
2013-02-09 03:40:00,25.3,21.2,28.79,SSE,158,17.7,23.5,84,0.00,,,0.00,VWS V14.01,2013-02-09 09:40:00,
2013-02-09 03:45:00,25.5,21.6,28.79,SSE,158,19.9,21.5,85,0.00,,,0.00,VWS V14.01,2013-02-09 09:45:00,
2013-02-09 03:50:00,25.5,21.6,28.79,SSE,158,15.7,19.9,85,0.00,,,0.00,VWS V14.01,2013-02-09 09:50:00,
2013-02-09 03:55:00,25.3,21.5,28.79,SSE,158,14.8,23.7,85,0.00,,,0.00,VWS V14.01,2013-02-09 09:55:00,
2013-02-09 04:00:00,25.3,21.5,28.79,SSE,158,13.0,20.8,85,0.00,,,0.00,VWS V14.01,2013-02-09 10:00:00,
2013-02-09 04:05:00,25.5,21.6,28.79,SSE,158,13.9,24.6,85,0.00,,,0.00,VWS V14.01,2013-02-09 10:05:00,
2013-02-09 04:10:00,25.3,21.2,28.79,SSE,158,12.5,19.9,84,0.00,,,0.00,VWS V14.01,2013-02-09 10:10:00,
2013-02-09 04:15:00,25.3,21.5,28.79,SSE,158,12.8,17.2,85,0.00,,,0.00,VWS V14.01,2013-02-09 10:15:00,
2013-02-09 04:20:00,25.3,21.5,28.79,SSE,158,15.4,18.6,85,0.00,,,0.00,VWS V14.01,2013-02-09 10:20:00,
2013-02-09 04:25:00,25.7,22.1,28.79,SE,135,17.5,25.1,86,0.00,,,0.00,VWS V14.01,2013-02-09 10:25:00,
2013-02-09 04:30:00,25.3,21.5,28.79,SSE,158,20.6,21.9,85,0.00,,,0.00,VWS V14.01,2013-02-09 10:30:00,
2013-02-09 04:35:00,25.3,21.5,28.79,SSE,158,19.7,20.6,85,0.00,,,0.00,VWS V14.01,2013-02-09 10:35:00,
2013-02-09 04:40:00,25.3,21.2,28.79,SSE,158,17.7,23.5,84,0.00,,,0.00,VWS V14.01,2013-02-09 10:40:00,
2013-02-09 04:45:00,25.9,22.5,28.76,SSE,158,10.7,22.6,87,0.00,,,0.00,VWS V14.01,2013-02-09 10:45:00,
2013-02-09 04:50:00,25.5,21.6,28.79,SSE,158,15.7,19.9,85,0.00,,,0.00,VWS V14.01,2013-02-09 10:50:00,
2013-02-09 04:55:00,25.5,21.9,28.79,SE,135,13.0,19.2,86,0.00,,,0.00,VWS V14.01,2013-02-09 10:55:00,
2013-02-09 05:00:00,25.5,21.9,28.79,SE,135,17.2,17.7,86,0.00,,,0.00,VWS V14.01,2013-02-09 11:00:00,
2013-02-09 05:05:00,25.5,21.6,28.79,SSE,158,13.9,24.6,85,0.00,,,0.00,VWS V14.01,2013-02-09 11:05:00,
2013-02-09 05:10:00,25.5,21.9,28.79,SSE,158,12.1,24.2,86,0.00,,,0.00,VWS V14.01,2013-02-09 11:10:00,
2013-02-09 05:15:00,25.9,22.8,28.76,SSE,158,15.4,19.9,88,0.00,,,0.00,VWS V14.01,2013-02-09 11:15:00,
2013-02-09 05:20:00,25.7,22.1,28.79,SSE,158,19.2,23.9,86,0.00,,,0.00,VWS V14.01,2013-02-09 11:20:00,
2013-02-09 05:25:00,25.9,22.8,28.76,SE,135,12.5,19.7,88,0.00,,,0.00,VWS V14.01,2013-02-09 11:25:00,
2013-02-09 05:30:00,25.7,22.1,28.76,SE,135,14.8,23.7,86,0.00,,,0.00,VWS V14.01,2013-02-09 11:30:00,
2013-02-09 05:35:00,25.9,22.8,28.76,SE,135,17.7,18.8,88,0.00,,,0.00,VWS V14.01,2013-02-09 11:35:00,
2013-02-09 05:40:00,25.9,22.3,28.76,SSE,158,14.1,20.8,86,0.00,,,0.00,VWS V14.01,2013-02-09 11:40:00,
2013-02-09 05:45:00,25.9,22.5,28.76,SSE,158,10.7,22.6,87,0.00,,,0.00,VWS V14.01,2013-02-09 11:45:00,
2013-02-09 05:50:00,25.9,22.5,28.76,SE,135,18.6,24.6,87,0.00,,,0.00,VWS V14.01,2013-02-09 11:50:00,
2013-02-09 05:55:00,25.9,22.3,28.76,SSE,158,19.9,26.2,86,0.00,,,0.00,VWS V14.01,2013-02-09 11:55:00,
2013-02-09 06:00:00,25.9,22.3,28.76,SE,135,14.5,22.4,86,0.00,,,0.00,VWS V14.01,2013-02-09 12:00:00,
2013-02-09 06:05:00,25.9,22.8,28.76,SE,135,12.3,17.2,88,0.00,,,0.00,VWS V14.01,2013-02-09 12:05:00,
2013-02-09 06:10:00,25.9,22.8,28.76,SE,135,11.0,18.6,88,0.00,,,0.00,VWS V14.01,2013-02-09 12:10:00,
2013-02-09 06:15:00,25.9,22.8,28.76,SSE,158,15.4,19.9,88,0.00,,,0.00,VWS V14.01,2013-02-09 12:15:00,
2013-02-09 06:20:00,25.9,22.8,28.76,SE,135,17.5,19.5,88,0.00,,,0.00,VWS V14.01,2013-02-09 12:20:00,
2013-02-09 06:25:00,25.9,22.8,28.76,SE,135,12.5,19.7,88,0.00,,,0.00,VWS V14.01,2013-02-09 12:25:00,
2013-02-09 06:30:00,25.9,22.8,28.76,SSE,158,18.8,21.5,88,0.00,,,0.00,VWS V14.01,2013-02-09 12:30:00,
2013-02-09 06:35:00,25.9,22.8,28.76,SE,135,17.7,18.8,88,0.00,,,0.00,VWS V14.01,2013-02-09 12:35:00,
2013-02-09 06:40:00,26.1,23.5,28.76,SSE,158,15.2,21.9,90,0.00,,,0.00,VWS V14.01,2013-02-09 12:40:00,
2013-02-09 06:45:00,25.9,22.8,28.76,SE,135,16.3,20.6,88,0.00,,,0.00,VWS V14.01,2013-02-09 12:45:00,
2013-02-09 06:50:00,25.9,22.8,28.76,SSE,158,16.6,17.9,88,0.00,,,0.00,VWS V14.01,2013-02-09 12:50:00,
2013-02-09 06:55:00,25.9,22.8,28.76,SSE,158,14.8,21.9,88,0.00,,,0.00,VWS V14.01,2013-02-09 12:55:00,
2013-02-09 07:00:00,25.9,22.8,28.76,SE,135,15.2,24.6,88,0.00,,,0.00,VWS V14.01,2013-02-09 13:00:00,
2013-02-09 07:05:00,26.4,24.4,28.73,SSE,158,16.1,19.5,92,0.00,,,0.00,VWS V14.01,2013-02-09 13:05:00,
2013-02-09 07:10:00,25.9,23.1,28.76,SSE,158,14.5,17.5,89,0.00,,,0.00,VWS V14.01,2013-02-09 13:10:00,
2013-02-09 07:15:00,26.1,23.3,28.76,SSE,158,16.6,17.2,89,0.00,,,0.00,VWS V14.01,2013-02-09 13:15:00,
2013-02-09 07:20:00,26.1,23.3,28.76,SSE,158,13.0,19.9,89,0.00,,,0.00,VWS V14.01,2013-02-09 13:20:00,
2013-02-09 07:25:00,27.0,25.2,28.73,SSE,158,17.7,18.6,93,0.00,,,0.00,VWS V14.01,2013-02-09 13:25:00,
2013-02-09 07:30:00,26.1,23.5,28.76,SSE,158,18.8,21.5,90,0.00,,,0.00,VWS V14.01,2013-02-09 13:30:00,
2013-02-09 07:35:00,27.0,25.5,28.73,SSE,158,16.3,20.1,94,0.00,,,0.00,VWS V14.01,2013-02-09 13:35:00,
2013-02-09 07:40:00,26.1,23.5,28.76,SSE,158,15.2,21.9,90,0.00,,,0.00,VWS V14.01,2013-02-09 13:40:00,
2013-02-09 07:45:00,26.1,23.8,28.76,SSE,158,16.1,19.5,91,0.00,,,0.00,VWS V14.01,2013-02-09 13:45:00,
2013-02-09 07:50:00,26.2,24.0,28.76,SE,135,12.8,21.3,91,0.00,,,0.00,VWS V14.01,2013-02-09 13:50:00,
2013-02-09 07:55:00,27.5,26.0,28.73,SSE,158,17.2,23.9,94,0.00,,,0.00,VWS V14.01,2013-02-09 13:55:00,
2013-02-09 08:00:00,26.4,24.4,28.73,SSE,158,15.2,20.1,92,0.00,,,0.00,VWS V14.01,2013-02-09 14:00:00,
2013-02-09 08:05:00,26.4,24.4,28.73,SSE,158,16.1,19.5,92,0.00,,,0.00,VWS V14.01,2013-02-09 14:05:00,
2013-02-09 08:10:00,26.6,24.6,28.73,SE,135,19.0,21.9,92,0.00,,,0.00,VWS V14.01,2013-02-09 14:10:00,
2013-02-09 08:15:00,28.0,26.5,28.73,SSE,158,26.4,27.5,94,0.00,,,0.00,VWS V14.01,2013-02-09 14:15:00,
2013-02-09 08:20:00,26.8,25.0,28.73,SSE,158,17.2,17.5,93,0.00,,,0.00,VWS V14.01,2013-02-09 14:20:00,
2013-02-09 08:25:00,27.0,25.2,28.73,SSE,158,17.7,18.6,93,0.00,,,0.00,VWS V14.01,2013-02-09 14:25:00,
2013-02-09 08:30:00,27.0,25.2,28.73,ESE,112,10.7,17.7,93,0.00,,,0.00,VWS V14.01,2013-02-09 14:30:00,
2013-02-09 08:35:00,27.0,25.5,28.73,SSE,158,16.3,20.1,94,0.00,,,0.00,VWS V14.01,2013-02-09 14:35:00,
2013-02-09 08:40:00,27.1,25.6,28.73,SSE,158,17.2,19.9,94,0.00,,,0.00,VWS V14.01,2013-02-09 14:40:00,
2013-02-09 08:45:00,28.8,26.7,28.73,SSE,158,22.4,27.3,92,0.00,,,0.00,VWS V14.01,2013-02-09 14:45:00,
2013-02-09 08:50:00,27.3,25.8,28.73,SSE,158,17.7,24.2,94,0.00,,,0.00,VWS V14.01,2013-02-09 14:50:00,
2013-02-09 08:55:00,29.1,26.8,28.73,SSE,158,22.6,23.7,91,0.00,,,0.00,VWS V14.01,2013-02-09 14:55:00,
2013-02-09 09:00:00,27.7,26.2,28.73,SSE,158,20.8,28.0,94,0.00,,,0.00,VWS V14.01,2013-02-09 15:00:00,
2013-02-09 09:05:00,27.9,26.4,28.73,SE,135,23.3,26.0,94,0.00,,,0.00,VWS V14.01,2013-02-09 15:05:00,
2013-02-09 09:10:00,27.9,26.4,28.73,SSE,158,17.7,28.0,94,0.00,,,0.00,VWS V14.01,2013-02-09 15:10:00,
2013-02-09 09:15:00,28.0,26.5,28.73,SSE,158,26.4,27.5,94,0.00,,,0.00,VWS V14.01,2013-02-09 15:15:00,
2013-02-09 09:20:00,29.8,27.0,28.73,SSE,158,22.8,27.7,89,0.00,,,0.00,VWS V14.01,2013-02-09 15:20:00,
2013-02-09 09:25:00,28.4,26.6,28.73,SE,135,22.8,28.6,93,0.00,,,0.00,VWS V14.01,2013-02-09 15:25:00,
2013-02-09 09:30:00,28.4,26.6,28.73,SE,135,23.5,28.6,93,0.00,,,0.00,VWS V14.01,2013-02-09 15:30:00,
2013-02-09 09:35:00,28.6,26.6,28.73,SSE,158,17.9,27.3,92,0.00,,,0.00,VWS V14.01,2013-02-09 15:35:00,
2013-02-09 09:40:00,28.6,26.6,28.73,SSE,158,23.3,28.4,92,0.00,,,0.00,VWS V14.01,2013-02-09 15:40:00,
2013-02-09 09:45:00,31.1,27.7,28.73,SSE,158,17.9,25.3,87,0.00,,,0.00,VWS V14.01,2013-02-09 15:45:00,
2013-02-09 09:50:00,28.9,26.6,28.73,SSE,158,19.9,29.5,91,0.00,,,0.00,VWS V14.01,2013-02-09 15:50:00,
2013-02-09 09:55:00,29.1,26.8,28.73,SSE,158,22.6,23.7,91,0.00,,,0.00,VWS V14.01,2013-02-09 15:55:00,
2013-02-09 10:00:00,31.5,27.5,28.70,SSE,158,22.8,27.5,85,0.00,,,0.00,VWS V14.01,2013-02-09 16:00:00,
2013-02-09 10:05:00,29.3,26.7,28.73,SSE,158,16.6,25.5,90,0.00,,,0.00,VWS V14.01,2013-02-09 16:05:00,
2013-02-09 10:10:00,29.5,26.9,28.73,SSE,158,21.5,24.4,90,0.00,,,0.00,VWS V14.01,2013-02-09 16:10:00,
2013-02-09 10:15:00,29.7,26.8,28.73,SSE,158,23.5,28.0,89,0.00,,,0.00,VWS V14.01,2013-02-09 16:15:00,
2013-02-09 10:20:00,29.8,27.0,28.73,SSE,158,22.8,27.7,89,0.00,,,0.00,VWS V14.01,2013-02-09 16:20:00,
2013-02-09 10:25:00,30.2,27.4,28.73,SSE,158,15.2,26.4,89,0.00,,,0.00,VWS V14.01,2013-02-09 16:25:00,
2013-02-09 10:30:00,30.4,27.3,28.70,SSE,158,17.5,25.3,88,0.00,,,0.00,VWS V14.01,2013-02-09 16:30:00,
2013-02-09 10:35:00,30.4,27.0,28.70,SSE,158,23.9,26.9,87,0.00,,,0.00,VWS V14.01,2013-02-09 16:35:00,
2013-02-09 10:40:00,30.7,27.3,28.70,SSE,158,16.6,24.4,87,0.00,,,0.00,VWS V14.01,2013-02-09 16:40:00,
2013-02-09 10:45:00,31.1,27.7,28.73,SSE,158,17.9,25.3,87,0.00,,,0.00,VWS V14.01,2013-02-09 16:45:00,
2013-02-09 10:50:00,31.1,27.4,28.73,SSE,158,19.5,25.5,86,0.00,,,0.00,VWS V14.01,2013-02-09 16:50:00,
2013-02-09 10:55:00,31.3,27.6,28.73,SSE,158,17.9,21.9,86,0.00,,,0.00,VWS V14.01,2013-02-09 16:55:00,
2013-02-09 11:00:00,31.5,27.5,28.70,SSE,158,22.8,27.5,85,0.00,,,0.00,VWS V14.01,2013-02-09 17:00:00,
2013-02-09 11:05:00,31.8,27.5,28.70,SSE,158,24.6,24.6,84,0.00,,,0.00,VWS V14.01,2013-02-09 17:05:00,
2013-02-09 11:10:00,31.8,27.5,28.70,SSE,158,15.4,26.9,84,0.00,,,0.00,VWS V14.01,2013-02-09 17:10:00,
2013-02-09 11:15:00,32.0,27.4,28.70,SSE,158,24.2,26.4,83,0.00,,,0.00,VWS V14.01,2013-02-09 17:15:00,
2013-02-09 11:20:00,32.2,27.6,28.70,SSE,158,15.4,25.3,83,0.00,,,0.00,VWS V14.01,2013-02-09 17:20:00,
2013-02-09 11:25:00,32.2,27.6,28.70,SSE,158,14.8,23.7,83,0.00,,,0.00,VWS V14.01,2013-02-09 17:25:00,
2013-02-09 11:30:00,32.5,27.7,28.70,SSE,158,17.2,22.4,82,0.00,,,0.00,VWS V14.01,2013-02-09 17:30:00,
2013-02-09 11:35:00,32.7,27.5,28.70,SE,135,15.2,23.0,81,0.00,,,0.00,VWS V14.01,2013-02-09 17:35:00,
2013-02-09 11:40:00,35.4,27.3,28.67,SSE,158,25.5,26.2,72,0.00,,,0.00,VWS V14.01,2013-02-09 17:40:00,
2013-02-09 11:45:00,35.6,27.1,28.64,SSE,158,14.8,25.5,71,0.00,,,0.00,VWS V14.01,2013-02-09 17:45:00,
2013-02-09 11:50:00,35.8,27.0,28.64,SE,135,18.6,25.3,70,0.00,,,0.00,VWS V14.01,2013-02-09 17:50:00,
2013-02-09 11:55:00,35.6,26.8,28.64,SE,135,22.6,26.6,70,0.00,,,0.00,VWS V14.01,2013-02-09 17:55:00,
2013-02-09 12:00:00,34.3,27.2,28.67,SSE,158,23.0,23.7,75,0.00,,,0.00,VWS V14.01,2013-02-09 18:00:00,
2013-02-09 12:05:00,36.0,26.8,28.64,SSE,158,22.4,27.3,69,0.00,,,0.00,VWS V14.01,2013-02-09 18:05:00,
2013-02-09 12:10:00,34.3,27.2,28.67,SSE,158,19.2,25.3,75,0.00,,,0.00,VWS V14.01,2013-02-09 18:10:00,
2013-02-09 12:15:00,34.5,27.1,28.67,SSE,158,17.5,27.5,74,0.00,,,0.00,VWS V14.01,2013-02-09 18:15:00,
2013-02-09 12:20:00,34.7,27.3,28.67,SSE,158,19.0,27.7,74,0.00,,,0.00,VWS V14.01,2013-02-09 18:20:00,
2013-02-09 12:25:00,34.9,27.1,28.67,SSE,158,23.5,25.3,73,0.00,,,0.00,VWS V14.01,2013-02-09 18:25:00,
2013-02-09 12:30:00,35.1,27.3,28.67,SSE,158,15.2,24.2,73,0.00,,,0.00,VWS V14.01,2013-02-09 18:30:00,
2013-02-09 12:35:00,35.1,27.3,28.67,SSE,158,23.0,25.3,73,0.00,,,0.00,VWS V14.01,2013-02-09 18:35:00,
2013-02-09 12:40:00,36.9,26.6,28.61,SSE,158,19.0,26.6,66,0.00,,,0.00,VWS V14.01,2013-02-09 18:40:00,
2013-02-09 12:45:00,35.6,27.1,28.64,SSE,158,14.8,25.5,71,0.00,,,0.00,VWS V14.01,2013-02-09 18:45:00,
2013-02-09 12:50:00,36.7,26.4,28.61,SSE,158,23.5,25.7,66,0.00,,,0.00,VWS V14.01,2013-02-09 18:50:00,
2013-02-09 12:55:00,35.6,26.8,28.64,SE,135,22.6,26.6,70,0.00,,,0.00,VWS V14.01,2013-02-09 18:55:00,
2013-02-09 13:00:00,35.8,27.0,28.64,SSE,158,23.5,24.6,70,0.00,,,0.00,VWS V14.01,2013-02-09 19:00:00,
2013-02-09 13:05:00,37.8,27.4,28.61,SE,135,18.8,25.1,66,0.00,,,0.00,VWS V14.01,2013-02-09 19:05:00,
2013-02-09 13:10:00,36.3,27.1,28.64,SSE,158,15.2,22.4,69,0.00,,,0.00,VWS V14.01,2013-02-09 19:10:00,
2013-02-09 13:15:00,36.1,26.6,28.64,SSE,158,24.4,24.4,68,0.00,,,0.00,VWS V14.01,2013-02-09 19:15:00,
2013-02-09 13:20:00,38.8,26.2,28.61,SE,135,23.3,27.7,60,0.00,,,0.00,VWS V14.01,2013-02-09 19:20:00,
2013-02-09 13:25:00,36.5,27.0,28.64,SSE,158,19.9,24.4,68,0.00,,,0.00,VWS V14.01,2013-02-09 19:25:00,
2013-02-09 13:30:00,36.5,27.0,28.61,SSE,158,22.2,25.5,68,0.00,,,0.00,VWS V14.01,2013-02-09 19:30:00,
2013-02-09 13:35:00,36.7,26.8,28.61,SSE,158,18.8,30.0,67,0.00,,,0.00,VWS V14.01,2013-02-09 19:35:00,
2013-02-09 13:40:00,36.9,26.6,28.61,SSE,158,19.0,26.6,66,0.00,,,0.00,VWS V14.01,2013-02-09 19:40:00,
2013-02-09 13:45:00,37.4,26.7,28.61,SSE,158,19.7,27.5,65,0.00,,,0.00,VWS V14.01,2013-02-09 19:45:00,
2013-02-09 13:50:00,39.7,26.2,28.61,SSE,158,17.2,26.4,58,0.00,,,0.00,VWS V14.01,2013-02-09 19:50:00,
2013-02-09 13:55:00,36.9,26.9,28.61,SE,135,22.2,23.7,67,0.00,,,0.00,VWS V14.01,2013-02-09 19:55:00,
2013-02-09 14:00:00,36.9,26.6,28.61,SSE,158,21.0,27.3,66,0.00,,,0.00,VWS V14.01,2013-02-09 20:00:00,
2013-02-09 14:05:00,37.8,27.4,28.61,SE,135,18.8,25.1,66,0.00,,,0.00,VWS V14.01,2013-02-09 20:05:00,
2013-02-09 14:10:00,37.8,26.7,28.58,SE,135,15.4,23.5,64,0.00,,,0.00,VWS V14.01,2013-02-09 20:10:00,
2013-02-09 14:15:00,39.4,27.1,28.61,SSE,158,22.6,25.5,61,0.00,,,0.00,VWS V14.01,2013-02-09 20:15:00,
2013-02-09 14:20:00,38.8,26.2,28.61,SE,135,23.3,27.7,60,0.00,,,0.00,VWS V14.01,2013-02-09 20:20:00,
2013-02-09 14:25:00,38.1,25.9,28.58,SE,135,22.8,22.8,61,0.00,,,0.00,VWS V14.01,2013-02-09 20:25:00,
2013-02-09 14:30:00,38.5,26.2,28.61,SSE,158,19.9,23.9,61,0.00,,,0.00,VWS V14.01,2013-02-09 20:30:00,
2013-02-09 14:35:00,39.7,27.4,28.61,SE,135,23.9,27.5,61,0.00,,,0.00,VWS V14.01,2013-02-09 20:35:00,
2013-02-09 14:40:00,39.2,26.5,28.61,SSE,158,16.6,23.9,60,0.00,,,0.00,VWS V14.01,2013-02-09 20:40:00,
2013-02-09 14:45:00,39.7,26.6,28.61,SE,135,13.9,23.3,59,0.00,,,0.00,VWS V14.01,2013-02-09 20:45:00,
2013-02-09 14:50:00,39.7,26.2,28.61,SSE,158,17.2,26.4,58,0.00,,,0.00,VWS V14.01,2013-02-09 20:50:00,
2013-02-09 14:55:00,39.7,26.6,28.61,SSE,158,15.2,25.1,59,0.00,,,0.00,VWS V14.01,2013-02-09 20:55:00,
2013-02-09 15:00:00,39.2,25.7,28.58,SSE,158,22.6,26.2,58,0.00,,,0.00,VWS V14.01,2013-02-09 21:00:00,
2013-02-09 15:05:00,39.2,26.9,28.55,SE,135,17.0,23.0,61,0.00,,,0.00,VWS V14.01,2013-02-09 21:05:00,
2013-02-09 15:10:00,37.8,26.7,28.58,SE,135,15.4,23.5,64,0.00,,,0.00,VWS V14.01,2013-02-09 21:10:00,
2013-02-09 15:15:00,38.1,26.6,28.58,SE,135,21.3,23.7,63,0.00,,,0.00,VWS V14.01,2013-02-09 21:15:00,
2013-02-09 15:20:00,39.4,27.1,28.58,SE,135,15.2,25.5,61,0.00,,,0.00,VWS V14.01,2013-02-09 21:20:00,
2013-02-09 15:25:00,38.1,25.9,28.58,SE,135,22.8,22.8,61,0.00,,,0.00,VWS V14.01,2013-02-09 21:25:00,
2013-02-09 15:30:00,39.0,27.1,28.58,SE,135,17.2,23.5,62,0.00,,,0.00,VWS V14.01,2013-02-09 21:30:00,
2013-02-09 15:35:00,39.2,26.5,28.58,SE,135,26.2,26.2,60,0.00,,,0.00,VWS V14.01,2013-02-09 21:35:00,
2013-02-09 15:40:00,37.0,25.6,28.55,SE,135,17.7,22.6,63,0.00,,,0.00,VWS V14.01,2013-02-09 21:40:00,
2013-02-09 15:45:00,39.9,25.9,28.55,SE,135,19.7,23.5,57,0.00,,,0.00,VWS V14.01,2013-02-09 21:45:00,
2013-02-09 15:50:00,39.0,25.5,28.55,SE,135,17.2,25.7,58,0.00,,,0.00,VWS V14.01,2013-02-09 21:50:00,
2013-02-09 15:55:00,38.1,25.5,28.55,ESE,112,15.4,19.9,60,0.00,,,0.00,VWS V14.01,2013-02-09 21:55:00,
2013-02-09 16:00:00,38.7,26.4,28.55,SE,135,17.7,25.7,61,0.00,,,0.00,VWS V14.01,2013-02-09 22:00:00,
2013-02-09 16:05:00,39.2,26.9,28.55,SE,135,17.0,23.0,61,0.00,,,0.00,VWS V14.01,2013-02-09 22:05:00,
2013-02-09 16:10:00,35.4,26.3,28.52,ESE,112,14.8,22.8,69,0.00,,,0.00,VWS V14.01,2013-02-09 22:10:00,
2013-02-09 16:15:00,39.0,25.9,28.55,ESE,112,13.0,23.9,59,0.00,,,0.00,VWS V14.01,2013-02-09 22:15:00,
2013-02-09 16:20:00,38.7,25.6,28.55,SE,135,21.0,23.0,59,0.00,,,0.00,VWS V14.01,2013-02-09 22:20:00,
2013-02-09 16:25:00,38.5,26.2,28.55,ESE,112,15.2,23.0,61,0.00,,,0.00,VWS V14.01,2013-02-09 22:25:00,
2013-02-09 16:30:00,37.8,25.5,28.55,SE,135,13.0,23.9,61,0.00,,,0.00,VWS V14.01,2013-02-09 22:30:00,
2013-02-09 16:35:00,37.4,25.6,28.55,SE,135,14.5,23.0,62,0.00,,,0.00,VWS V14.01,2013-02-09 22:35:00,
2013-02-09 16:40:00,37.0,25.6,28.55,SE,135,17.7,22.6,63,0.00,,,0.00,VWS V14.01,2013-02-09 22:40:00,
2013-02-09 16:45:00,33.4,27.0,28.55,SE,135,14.8,17.2,77,0.00,,,0.00,VWS V14.01,2013-02-09 22:45:00,
2013-02-09 16:50:00,36.3,26.1,28.52,SE,135,17.7,20.6,66,0.00,,,0.00,VWS V14.01,2013-02-09 22:50:00,
2013-02-09 16:55:00,36.3,26.4,28.52,ESE,112,14.8,19.7,67,0.00,,,0.00,VWS V14.01,2013-02-09 22:55:00,
2013-02-09 17:00:00,35.8,25.9,28.52,ESE,112,16.3,21.0,67,0.00,,,0.00,VWS V14.01,2013-02-09 23:00:00,
2013-02-09 17:05:00,35.8,26.3,28.52,SE,135,18.8,23.7,68,0.00,,,0.00,VWS V14.01,2013-02-09 23:05:00,
2013-02-09 17:10:00,35.4,26.3,28.52,ESE,112,14.8,22.8,69,0.00,,,0.00,VWS V14.01,2013-02-09 23:10:00,
2013-02-09 17:15:00,35.2,26.5,28.55,ESE,112,12.5,22.6,70,0.00,,,0.00,VWS V14.01,2013-02-09 23:15:00,
2013-02-09 17:20:00,32.5,27.7,28.55,SE,135,13.0,19.9,82,0.00,,,0.00,VWS V14.01,2013-02-09 23:20:00,
2013-02-09 17:25:00,34.3,26.9,28.55,SE,135,13.4,22.2,74,0.00,,,0.00,VWS V14.01,2013-02-09 23:25:00,
2013-02-09 17:30:00,34.2,26.8,28.52,SE,135,19.7,21.3,74,0.00,,,0.00,VWS V14.01,2013-02-09 23:30:00,
2013-02-09 17:35:00,31.8,27.2,28.55,ESE,112,8.5,14.8,83,0.00,,,0.00,VWS V14.01,2013-02-09 23:35:00,
2013-02-09 17:40:00,33.6,27.2,28.52,SE,135,14.3,18.8,77,0.00,,,0.00,VWS V14.01,2013-02-09 23:40:00,
2013-02-09 17:45:00,33.4,27.0,28.55,SE,135,14.8,17.2,77,0.00,,,0.00,VWS V14.01,2013-02-09 23:45:00,
2013-02-09 17:50:00,33.3,27.1,28.55,SE,135,15.4,18.8,78,0.00,,,0.00,VWS V14.01,2013-02-09 23:50:00,
2013-02-09 17:55:00,31.8,28.4,28.55,ESE,112,9.4,15.2,87,0.00,,,0.00,VWS V14.01,2013-02-09 23:55:00,
2013-02-09 18:00:00,33.1,27.3,28.52,SE,135,13.2,19.9,79,0.00,,,0.00,VWS V14.01,2013-02-10 00:00:00,
2013-02-09 18:05:00,31.8,28.4,28.55,ESE,112,14.8,14.8,87,0.00,,,0.00,VWS V14.01,2013-02-10 00:05:00,
2013-02-09 18:10:00,32.5,27.1,28.52,ESE,112,15.2,17.5,80,0.00,,,0.00,VWS V14.01,2013-02-10 00:10:00,
2013-02-09 18:15:00,32.5,27.4,28.55,SE,135,14.5,17.7,81,0.00,,,0.00,VWS V14.01,2013-02-10 00:15:00,
2013-02-09 18:20:00,32.5,27.7,28.55,SE,135,13.0,19.9,82,0.00,,,0.00,VWS V14.01,2013-02-10 00:20:00,
2013-02-09 18:25:00,32.4,27.2,28.55,SE,135,12.8,19.0,81,0.00,,,0.00,VWS V14.01,2013-02-10 00:25:00,
2013-02-09 18:30:00,32.0,27.1,28.55,ESE,112,13.2,16.3,82,0.00,,,0.00,VWS V14.01,2013-02-10 00:30:00,
2013-02-09 18:35:00,32.0,29.1,28.55,ESE,112,14.5,17.5,89,0.00,,,0.00,VWS V14.01,2013-02-10 00:35:00,
2013-02-09 18:40:00,31.6,27.7,28.55,SE,135,15.2,15.2,85,0.00,,,0.00,VWS V14.01,2013-02-10 00:40:00,
2013-02-09 18:45:00,31.6,27.9,28.55,SE,135,14.8,15.2,86,0.00,,,0.00,VWS V14.01,2013-02-10 00:45:00,
2013-02-09 18:50:00,31.8,28.4,28.55,SE,135,10.1,17.7,87,0.00,,,0.00,VWS V14.01,2013-02-10 00:50:00,
2013-02-09 18:55:00,31.8,28.4,28.55,ESE,112,9.4,15.2,87,0.00,,,0.00,VWS V14.01,2013-02-10 00:55:00,
2013-02-09 19:00:00,31.8,28.4,28.55,ESE,112,13.0,14.5,87,0.00,,,0.00,VWS V14.01,2013-02-10 01:00:00,
2013-02-09 19:05:00,32.0,29.1,28.52,ESE,112,10.3,17.0,89,0.00,,,0.00,VWS V14.01,2013-02-10 01:05:00,
2013-02-09 19:10:00,31.8,28.7,28.55,SE,135,15.2,17.5,88,0.00,,,0.00,VWS V14.01,2013-02-10 01:10:00,
2013-02-09 19:15:00,31.8,28.7,28.52,ESE,112,11.0,15.2,88,0.00,,,0.00,VWS V14.01,2013-02-10 01:15:00,
2013-02-09 19:20:00,32.0,28.9,28.52,SE,135,12.8,15.2,88,0.00,,,0.00,VWS V14.01,2013-02-10 01:20:00,
2013-02-09 19:25:00,32.0,28.9,28.52,ESE,112,13.9,23.0,88,0.00,,,0.00,VWS V14.01,2013-02-10 01:25:00,
2013-02-09 19:30:00,32.0,29.1,28.55,SE,135,17.5,17.5,89,0.00,,,0.00,VWS V14.01,2013-02-10 01:30:00,
2013-02-09 19:35:00,32.0,29.1,28.55,ESE,112,14.5,17.5,89,0.00,,,0.00,VWS V14.01,2013-02-10 01:35:00,
2013-02-09 19:40:00,31.5,28.3,28.52,ESE,112,14.8,19.2,88,0.00,,,0.00,VWS V14.01,2013-02-10 01:40:00,
2013-02-09 19:45:00,32.0,29.1,28.52,ESE,112,10.5,15.9,89,0.00,,,0.00,VWS V14.01,2013-02-10 01:45:00,
2013-02-09 19:50:00,32.0,29.1,28.52,ESE,112,17.7,17.9,89,0.00,,,0.00,VWS V14.01,2013-02-10 01:50:00,
2013-02-09 19:55:00,32.0,29.1,28.52,ESE,112,13.2,17.7,89,0.00,,,0.00,VWS V14.01,2013-02-10 01:55:00,
2013-02-09 20:00:00,31.3,28.7,28.52,SE,135,12.8,17.5,90,0.00,,,0.00,VWS V14.01,2013-02-10 02:00:00,
2013-02-09 20:05:00,32.0,29.1,28.52,ESE,112,10.3,17.0,89,0.00,,,0.00,VWS V14.01,2013-02-10 02:05:00,
2013-02-09 20:10:00,32.0,29.1,28.52,ESE,112,17.5,17.7,89,0.00,,,0.00,VWS V14.01,2013-02-10 02:10:00,
2013-02-09 20:15:00,32.0,29.1,28.52,ESE,112,22.4,22.4,89,0.00,,,0.00,VWS V14.01,2013-02-10 02:15:00,
2013-02-09 20:20:00,31.1,28.2,28.52,ESE,112,8.5,15.4,89,0.00,,,0.00,VWS V14.01,2013-02-10 02:20:00,
2013-02-09 20:25:00,32.0,28.9,28.52,ESE,112,13.9,23.0,88,0.00,,,0.00,VWS V14.01,2013-02-10 02:25:00,
2013-02-09 20:30:00,31.8,28.7,28.52,SE,135,14.8,19.0,88,0.00,,,0.00,VWS V14.01,2013-02-10 02:30:00,
2013-02-09 20:35:00,31.6,28.5,28.52,ESE,112,13.2,15.2,88,0.00,,,0.00,VWS V14.01,2013-02-10 02:35:00,
2013-02-09 20:40:00,31.5,28.3,28.52,ESE,112,14.8,19.2,88,0.00,,,0.00,VWS V14.01,2013-02-10 02:40:00,
2013-02-09 20:45:00,31.3,28.4,28.52,ESE,112,17.7,17.7,89,0.00,,,0.00,VWS V14.01,2013-02-10 02:45:00,
2013-02-09 20:50:00,31.3,28.4,28.52,SE,135,13.4,17.7,89,0.00,,,0.00,VWS V14.01,2013-02-10 02:50:00,
2013-02-09 20:55:00,31.3,28.7,28.50,ESE,112,14.8,17.5,90,0.00,,,0.00,VWS V14.01,2013-02-10 02:55:00,
2013-02-09 21:00:00,31.3,28.7,28.52,SE,135,12.8,17.5,90,0.00,,,0.00,VWS V14.01,2013-02-10 03:00:00,
2013-02-09 21:05:00,31.3,28.7,28.52,ESE,112,14.8,15.7,90,0.00,,,0.00,VWS V14.01,2013-02-10 03:05:00,
2013-02-09 21:10:00,31.3,28.4,28.52,SSE,158,10.3,15.4,89,0.00,,,0.00,VWS V14.01,2013-02-10 03:10:00,
2013-02-09 21:15:00,31.3,28.4,28.52,SE,135,7.8,14.8,89,0.00,,,0.00,VWS V14.01,2013-02-10 03:15:00,
2013-02-09 21:20:00,31.1,28.2,28.52,ESE,112,8.5,15.4,89,0.00,,,0.00,VWS V14.01,2013-02-10 03:20:00,
2013-02-09 21:25:00,31.8,28.4,28.50,ESE,112,12.1,14.5,87,0.00,,,0.00,VWS V14.01,2013-02-10 03:25:00,
2013-02-09 21:30:00,30.9,28.1,28.52,ESE,112,10.1,15.4,89,0.00,,,0.00,VWS V14.01,2013-02-10 03:30:00,
2013-02-09 21:35:00,31.8,28.4,28.50,ESE,112,13.2,15.2,87,0.00,,,0.00,VWS V14.01,2013-02-10 03:35:00,
2013-02-09 21:40:00,30.9,28.3,28.52,ESE,112,10.1,13.2,90,0.00,,,0.00,VWS V14.01,2013-02-10 03:40:00,
2013-02-09 21:45:00,31.1,28.5,28.50,ESE,112,12.1,13.0,90,0.00,,,0.00,VWS V14.01,2013-02-10 03:45:00,
2013-02-09 21:50:00,31.1,28.5,28.50,ESE,112,13.0,14.8,90,0.00,,,0.00,VWS V14.01,2013-02-10 03:50:00,
2013-02-09 21:55:00,31.3,28.7,28.50,ESE,112,14.8,17.5,90,0.00,,,0.00,VWS V14.01,2013-02-10 03:55:00,
2013-02-09 22:00:00,31.5,28.6,28.50,SE,135,13.2,14.8,89,0.00,,,0.00,VWS V14.01,2013-02-10 04:00:00,
2013-02-09 22:05:00,31.6,28.8,28.50,ESE,112,12.8,17.5,89,0.00,,,0.00,VWS V14.01,2013-02-10 04:05:00,
2013-02-09 22:10:00,32.0,29.1,28.47,SE,135,13.9,19.9,89,0.00,,,0.00,VWS V14.01,2013-02-10 04:10:00,
2013-02-09 22:15:00,31.6,28.5,28.50,ESE,112,13.0,15.2,88,0.00,,,0.00,VWS V14.01,2013-02-10 04:15:00,
2013-02-09 22:20:00,31.8,28.4,28.50,ESE,112,10.7,14.8,87,0.00,,,0.00,VWS V14.01,2013-02-10 04:20:00,
2013-02-09 22:25:00,31.8,28.4,28.50,ESE,112,12.1,14.5,87,0.00,,,0.00,VWS V14.01,2013-02-10 04:25:00,
2013-02-09 22:30:00,31.8,28.4,28.50,ESE,112,11.2,17.2,87,0.00,,,0.00,VWS V14.01,2013-02-10 04:30:00,
2013-02-09 22:35:00,32.2,29.6,28.47,ESE,112,17.2,17.2,90,0.00,,,0.00,VWS V14.01,2013-02-10 04:35:00,
2013-02-09 22:40:00,31.8,28.4,28.50,ESE,112,10.3,17.2,87,0.00,,,0.00,VWS V14.01,2013-02-10 04:40:00,
2013-02-09 22:45:00,32.4,29.8,28.47,ESE,112,13.0,15.2,90,0.00,,,0.00,VWS V14.01,2013-02-10 04:45:00,
2013-02-09 22:50:00,32.0,28.6,28.50,ESE,112,10.3,17.7,87,0.00,,,0.00,VWS V14.01,2013-02-10 04:50:00,
2013-02-09 22:55:00,32.0,28.6,28.50,ESE,112,8.5,13.0,87,0.00,,,0.00,VWS V14.01,2013-02-10 04:55:00,
2013-02-09 23:00:00,32.0,28.6,28.47,SE,135,12.5,15.4,87,0.00,,,0.00,VWS V14.01,2013-02-10 05:00:00,
2013-02-09 23:05:00,31.8,28.7,28.47,SE,135,12.3,16.1,88,0.00,,,0.00,VWS V14.01,2013-02-10 05:05:00,
2013-02-09 23:10:00,32.5,31.8,28.47,ESE,112,8.5,14.8,97,0.00,,,0.00,VWS V14.01,2013-02-10 05:10:00,
2013-02-09 23:15:00,32.0,29.4,28.47,ESE,112,15.2,17.5,90,0.00,,,0.00,VWS V14.01,2013-02-10 05:15:00,
2013-02-09 23:20:00,32.0,29.4,28.47,ESE,112,12.5,17.0,90,0.00,,,0.00,VWS V14.01,2013-02-10 05:20:00,
2013-02-09 23:25:00,32.2,29.6,28.47,ESE,112,7.8,15.4,90,0.00,,,0.00,VWS V14.01,2013-02-10 05:25:00,
2013-02-09 23:30:00,32.7,32.2,28.47,ESE,112,10.7,15.2,98,0.00,,,0.00,VWS V14.01,2013-02-10 05:30:00,
2013-02-09 23:35:00,32.2,29.6,28.47,ESE,112,17.2,17.2,90,0.00,,,0.00,VWS V14.01,2013-02-10 05:35:00,
2013-02-09 23:40:00,32.2,29.6,28.47,SE,135,14.5,17.2,90,0.00,,,0.00,VWS V14.01,2013-02-10 05:40:00,
2013-02-09 23:45:00,32.9,32.4,28.44,ESE,112,13.0,15.4,98,0.00,,,0.00,VWS V14.01,2013-02-10 05:45:00,
2013-02-09 23:50:00,32.5,30.5,28.47,SE,135,11.0,17.0,92,0.00,,,0.00,VWS V14.01,2013-02-10 05:50:00,
2013-02-09 23:55:00,32.5,31.0,28.47,ESE,112,12.5,17.7,94,0.00,,,0.00,VWS V14.01,2013-02-10 05:55:00,